Temperature
7 7 6 6 6 6 6 6 6 6 6 6 6 6 5 5 5 5 5 5 5 5 4 4 4 4 4 4 4 4 4 4 4 4 4 4 4 4 5 5 5 5 5
6 6 6 6 6 6 6 6 6 6 6 6 5 5 5 5 5 5 5 5 5 4 4 4 4 4 4 4 4 4 4 4 4 4 4 4 4 4 4 4 4 5 5
6 6 6 6 6 6 5 5 5 5 5 5 5 5 5 5 5 5 5 4 4 4 4 4 4 4 4 4 4 4 4 3 3 3 3 3 3 3 3 4 4 4 4
6 6 6 6 5 5 5 5 5 5 5 5 5 5 5 5 5 4 4 4 4 4 4 4 4 4 3 3 3 3 3 3 3 3 3 3 3 3 3 3 3 4 4
6 6 6 5 5 5 5 5 5 5 5 5 5 5 5 4 4 4 4 4 3 3 3 3 3 3 3 3 3 3 3 3 3 3 3 3 3 2 2 2 3 3 3
5 5 5 5 5 5 5 5 5 5 5 5 5 4 4 4 4 4 4 3 3 3 3 3 3 3 3 3 3 3 3 3 3 3 2 2 2 2 2 2 2 2 2
5 5 5 5 5 5 5 5 5 5 5 4 4 4 4 4 4 4 4 3 3 3 3 3 3 3 3 3 3 3 3 2 2 2 2 2 2 1 2 2 2 1 1
5 5 5 5 5 5 4 4 4 4 4 4 4 4 4 4 4 4 3 3 3 3 3 3 3 3 2 2 2 2 2 2 2 2 2 2 1 1 1 1 1 1 1
5 5 5 5 5 4 4 4 4 4 4 4 4 4 3 3 3 3 3 3 3 3 3 3 2 2 2 2 2 2 2 2 1 1 1 1 1 1 1 1 1 1 0
5 4 4 4 4 4 4 4 4 4 4 3 3 3 3 3 3 3 3 3 2 2 2 2 2 2 2 2 2 1 1 1 1 1 1 1 1 1 1 1 0 0 -0
4 4 4 4 4 4 4 3 3 3 3 3 3 3 3 3 2 2 2 2 2 2 2 2 2 1 1 1 1 1 1 1 1 1 1 0 0 0 0 0 -0 -0 -1
3 3 4 4 4 4 3 3 3 3 2 2 2 2 2 2 2 2 2 2 2 1 1 1 1 1 1 1 1 1 1 1 0 0 0 0 0 -0 -0 -0 -1 -1 -1
3 3 3 3 3 3 3 3 2 2 2 2 1 1 1 1 1 1 1 1 1 1 1 1 1 1 1 1 1 1 0 0 0 0 -0 -0 -1 -1 -1 -1 -1 -1 -1
2 2 2 2 2 2 2 2 2 1 1 1 1 1 1 1 1 1 1 1 1 1 1 1 0 0 0 0 0 0 -0 -0 -0 -1 -1 -1 -1 -1 -1 -2 -2 -2 -2
2 2 2 2 2 2 1 1 1 1 1 1 1 1 1 1 1 0 0 0 0 0 0 0 -0 -0 -0 -0 -0 -1 -1 -1 -1 -1 -1 -1 -1 -1 -2 -2 -2 -2 -2
1 1 1 1 1 1 1 1 1 1 1 1 1 0 0 0 0 -0 0 0 0 -0 -0 -0 -1 -1 -1 -1 -1 -1 -1 -1 -1 -2 -2 -2 -2 -2 -2 -2 -2 -2 -2
1 1 1 1 0 0 0 0 0 0 0 0 0 0 0 -0 -0 -0 -0 -0 -0 -0 -1 -1 -1 -1 -1 -1 -1 -1 -2 -2 -2 -2 -2 -2 -2 -2 -2 -2 -3 -3 -3
0 0 0 0 -0 -0 -0 -0 -1 -1 -0 -0 -0 -0 -0 -0 -0 -0 -0 -0 -1 -1 -1 -1 -1 -1 -1 -2 -2 -2 -2 -2 -2 -2 -2 -2 -2 -2 -3 -3 -3 -3 -3
-0 -0 -0 -1 -1 -1 -1 -1 -1 -1 -1 -1 -1 -1 -1 -1 -1 -1 -1 -1 -1 -1 -1 -1 -2 -2 -2 -2 -2 -2 -2 -2 -2 -2 -3 -3 -3 -3 -3 -3 -3 -3 -3
-1 -1 -1 -1 -1 -1 -2 -2 -2 -2 -2 -2 -2 -2 -1 -1 -1 -1 -2 -2 -2 -2 -2 -2 -2 -2 -2 -2 -2 -3 -3 -3 -3 -3 -3 -3 -3 -3 -3 -3 -3 -3 -3
-1 -1 -1 -1 -2 -2 -2 -2 -2 -2 -2 -2 -2 -2 -2 -2 -2 -2 -2 -2 -2 -2 -2 -2 -3 -3 -3 -3 -3 -3 -3 -3 -3 -3 -3 -3 -3 -3 -3 -3 -3 -4 -4
-1 -2 -2 -2 -2 -2 -2 -2 -3 -3 -3 -3 -3 -3 -3 -3 -3 -3 -3 -3 -3 -3 -3 -3 -3 -3 -3 -3 -3 -3 -3 -3 -3 -3 -3 -3 -3 -3 -3 -3 -4 -4 -4
-2 -2 -2 -3 -3 -3 -3 -3 -3 -3 -3 -3 -3 -3 -3 -3 -3 -3 -3 -3 -3 -3 -3 -3 -3 -3 -3 -3 -3 -3 -3 -3 -3 -4 -4 -4 -4 -4 -4 -4 -4 -4 -4
-3 -3 -3 -3 -3 -3 -3 -4 -4 -4 -4 -4 -4 -4 -4 -4 -4 -4 -4 -4 -4 -4 -4 -4 -4 -4 -3 -3 -4 -3 -3 -3 -3 -4 -4 -4 -4 -4 -4 -4 -4 -4 -4
-4 -4 -4 -4 -4 -4 -4 -4 -4 -4 -4 -4 -4 -4 -4 -4 -4 -4 -4 -4 -4 -4 -4 -4 -4 -4 -4 -4 -4 -4 -3 -3 -3 -4 -4 -4 -4 -4 -4 -4 -4 -4 -4
-4 -4 -4 -4 -4 -4 -4 -4 -4 -5 -5 -5 -5 -5 -5 -5 -5 -5 -5 -5 -5 -5 -5 -4 -4 -4 -4 -4 -4 -4 -3 -3 -4 -4 -4 -4 -4 -4 -4 -4 -4 -4 -4
Wind_Speed
5 5 5 5 5 4 5 5 5 5 4 4 4 4 4 4 4 4 4 4 5 4 5 5 5 4 4 3 3 4 4 4 5 6 5 5 6 6 6 7 7 7 7
5 4 4 4 4 4 5 5 5 4 4 4 4 4 4 4 4 4 4 4 4 4 4 4 4 3 4 3 3 3 3 4 4 5 5 5 6 6 7 7 6 6 6
4 4 4 4 4 5 5 4 4 4 3 3 3 3 3 3 4 3 3 3 3 3 3 3 3 3 3 3 3 3 3 3 3 4 5 5 5 5 6 6 7 6 6
4 4 4 4 4 4 4 4 4 4 3 3 3 3 3 3 3 2 2 2 2 2 2 2 2 2 3 3 3 3 2 2 2 3 4 4 5 5 5 6 6 6 6
4 4 4 4 3 3 3 3 3 3 3 2 2 3 2 2 2 2 1 1 1 2 1 2 2 2 2 2 2 2 2 2 2 3 3 4 4 4 5 5 5 6 6
4 4 3 3 3 3 3 3 3 3 2 2 2 2 1 1 1 1 1 1 1 1 1 1 2 1 1 1 2 2 3 3 3 3 4 4 5 5 5 5 5 5 5
3 3 3 3 2 3 3 3 3 3 2 1 1 1 1 2 2 2 2 0 1 1 1 1 1 1 1 1 2 3 4 4 4 4 4 5 5 5 5 5 5 5 5
2 2 2 2 2 2 2 2 3 2 1 1 1 1 1 2 3 3 3 1 1 1 1 1 1 1 1 1 2 2 3 4 4 3 3 4 4 4 5 5 5 5 5
2 2 2 2 2 2 2 2 2 1 1 0 0 0 1 2 3 3 2 1 1 2 2 1 0 0 0 1 1 1 2 3 4 4 3 3 4 5 5 4 4 3 4
2 2 2 2 2 2 2 1 1 0 0 1 1 1 1 2 3 3 3 1 1 2 2 2 1 1 1 2 1 1 2 3 3 3 3 4 4 4 5 4 4 3 3
1 0 0 0 0 1 0 0 1 1 1 2 2 2 2 2 2 3 3 1 1 1 1 1 1 2 2 3 3 2 1 3 3 3 3 3 4 4 4 4 4 3 3
1 1 1 1 1 1 2 1 1 2 2 2 3 3 3 2 3 3 4 3 2 1 1 1 1 2 2 3 2 2 2 3 2 2 3 3 3 4 4 4 3 3 3
2 2 2 2 2 2 2 2 2 2 2 1 2 2 2 2 2 3 3 3 3 2 1 1 2 2 3 3 3 3 3 2 1 1 2 3 3 4 4 3 3 2 2
3 3 3 3 3 3 2 2 2 2 1 1 1 1 1 2 2 2 2 2 2 2 2 2 3 4 3 3 3 2 2 2 1 1 2 2 3 3 3 3 3 3 2
3 3 3 3 3 3 3 2 2 1 1 0 0 0 0 1 2 2 1 1 1 1 1 1 1 1 2 2 2 2 2 2 2 2 2 2 3 3 3 3 2 2 2
2 2 2 2 2 2 2 3 5 4 4 4 3 2 2 2 2 2 3 3 2 1 2 1 1 1 1 1 1 1 2 1 2 2 2 2 2 2 2 2 2 2 2
3 2 2 2 2 2 2 2 2 4 5 5 5 5 4 3 3 2 2 3 3 2 1 1 1 2 2 1 1 1 2 2 2 2 2 2 2 2 2 2 2 2 2
3 3 3 2 2 1 1 1 1 2 2 3 4 4 5 4 4 3 3 2 2 2 1 1 1 2 2 2 2 2 1 1 1 1 2 2 2 1 1 1 2 2 2
3 2 2 2 2 2 2 2 2 2 2 2 3 3 4 4 4 4 3 2 1 2 2 2 2 2 2 2 2 2 2 2 2 2 2 2 2 1 1 1 1 2 2
3 4 3 2 2 2 2 2 2 2 2 2 2 3 3 3 3 3 3 3 2 2 2 2 2 2 2 2 2 2 2 2 2 2 2 2 2 1 1 1 1 1 1
2 2 3 2 2 2 2 2 2 2 2 2 3 4 5 3 3 3 3 3 3 3 3 3 3 3 3 2 2 2 3 2 2 2 2 2 1 1 1 1 1 1 1
2 1 2 2 2 2 2 2 2 2 2 3 3 4 5 3 3 3 3 4 4 4 3 3 3 3 3 3 3 3 3 3 3 2 2 2 2 1 1 1 0 0 0
1 1 1 1 1 2 2 2 2 2 3 3 3 3 3 3 4 4 4 4 4 4 4 3 3 3 3 3 3 3 4 4 3 3 2 2 2 1 1 1 1 1 0
1 1 1 1 1 1 2 2 2 2 3 3 3 4 4 4 4 5 5 4 4 4 4 4 4 5 5 4 3 3 4 4 3 3 3 3 2 2 1 1 1 1 1
0 0 1 1 1 2 2 2 2 3 3 3 4 4 4 4 4 5 5 4 5 5 5 5 4 4 5 5 4 4 4 5 5 4 3 3 3 2 2 2 1 1 1
0 1 1 1 2 2 2 2 3 3 4 4 4 4 5 5 4 5 5 5 5 5 5 5 5 5 6 5 5 5 5 5 5 5 4 3 3 3 3 2 2 2 1
Wind_Direction
246 250 256 257 257 257 258 260 261 263 264 259 260 257 259 259 253 245 244 234 235 243 244 241 242 245 247 249 248 245 251 255 263 288 298 302 297 301 305 304 302 302 298
245 245 250 256 256 254 257 260 261 261 261 264 262 254 253 250 248 244 241 232 235 240 244 243 243 245 250 254 252 248 255 262 258 275 291 298 300 307 307 307 310 311 307
243 241 245 252 254 253 255 256 258 256 257 267 264 261 258 252 247 244 239 228 232 238 241 242 244 244 255 261 263 258 261 273 269 264 284 296 303 310 311 310 312 310 313
239 238 245 254 255 251 251 251 255 253 253 269 270 271 262 250 246 242 236 227 236 242 245 252 253 249 256 265 264 258 258 265 267 268 284 296 303 308 306 312 317 321 320
234 239 245 247 251 251 253 249 253 257 256 265 275 283 275 254 240 243 241 236 247 248 261 276 282 274 274 270 266 259 259 264 272 278 283 293 298 304 305 309 309 320 321
232 235 242 244 242 248 249 242 245 253 255 271 284 292 300 313 318 281 259 220 264 263 280 314 327 330 310 289 286 302 300 274 269 278 283 284 293 299 306 307 312 318 315
230 234 237 243 244 248 246 244 243 245 250 267 296 317 330 360 31 56 48 359 256 280 290 313 325 331 325 345 20 5 350 332 302 283 280 290 293 300 303 305 308 308 305
223 234 235 231 245 256 248 252 251 246 243 254 298 326 345 11 35 44 43 28 3 344 321 295 282 306 337 12 9 357 349 348 336 322 308 310 314 312 304 299 300 306 306
233 237 237 224 226 238 247 255 250 255 265 246 348 9 3 13 39 47 40 42 35 5 351 345 327 282 55 332 337 343 349 354 15 21 5 346 339 334 321 310 305 306 306
255 257 257 227 209 219 232 257 293 265 237 84 67 49 32 25 38 45 41 70 49 16 3 0 18 56 23 335 318 318 324 329 339 346 351 351 342 345 338 320 302 295 295
298 270 340 332 239 216 210 132 79 60 63 63 61 48 45 43 45 44 37 50 77 24 358 352 14 50 13 354 338 321 308 315 326 334 339 344 346 347 346 343 330 303 291
62 67 50 42 41 49 73 75 89 84 73 57 50 39 35 35 36 41 37 30 20 45 350 344 26 44 24 9 4 35 10 342 337 344 344 341 341 340 342 347 345 340 324
70 68 62 55 51 53 72 82 83 81 82 66 55 39 23 22 31 36 37 34 29 27 25 48 28 22 17 16 32 18 357 347 353 350 337 330 330 327 326 328 332 341 341
70 64 59 60 56 50 50 64 81 83 84 76 57 37 15 9 21 23 20 40 49 48 47 54 41 30 28 21 1 358 2 358 346 332 323 325 326 327 332 336 336 340 345
74 66 60 57 57 55 55 53 59 49 50 95 96 43 352 342 353 4 358 10 14 47 28 19 15 10 7 357 354 352 354 348 343 330 324 324 325 331 336 338 338 344 346
76 66 64 64 60 56 58 51 46 44 36 32 32 27 13 8 4 8 16 29 34 24 4 13 345 323 308 312 320 330 333 328 324 317 316 316 318 327 336 348 357 358 355
67 61 62 64 64 61 60 61 46 35 34 34 33 32 32 25 23 28 38 35 34 20 12 350 305 299 300 299 292 294 305 312 313 309 310 310 313 320 331 344 354 359 356
64 55 54 57 56 52 53 49 46 31 15 11 17 28 28 27 30 33 29 22 15 7 351 321 301 296 292 291 290 288 290 295 298 295 297 298 299 299 314 334 349 357 350
57 50 48 49 48 44 42 43 37 24 8 354 358 6 13 9 12 14 10 360 347 335 322 307 294 286 282 278 278 277 275 274 278 282 282 284 286 284 302 326 338 349 347
57 46 38 46 46 38 35 37 30 16 3 352 349 348 349 353 354 350 348 339 325 315 308 296 288 280 274 267 263 259 263 271 274 268 269 276 277 267 276 295 306 320 332
59 51 40 45 43 33 27 22 13 5 353 342 340 346 349 340 329 322 321 320 313 305 299 292 285 276 267 262 259 257 256 260 262 268 271 273 269 270 276 282 298 307 324
60 50 40 42 35 27 19 6 358 353 345 339 335 338 339 332 320 315 313 312 308 301 294 288 282 274 265 258 255 254 250 249 252 252 261 271 269 258 260 265 270 281 293
57 51 41 34 27 16 6 354 345 340 334 330 326 324 323 319 314 311 309 308 309 307 303 291 284 283 281 271 258 251 249 251 249 247 245 251 248 239 232 229 234 241 277
61 52 28 4 354 346 336 327 322 320 316 314 313 311 310 309 308 308 306 306 307 308 309 303 292 289 288 281 270 258 251 246 242 239 238 235 228 221 215 216 230 236 237
44 8 323 314 312 309 307 307 310 310 307 306 305 304 305 306 306 305 305 304 305 305 308 308 304 297 291 279 268 260 249 242 238 233 226 222 211 208 209 215 216 223 237
293 290 293 292 289 289 289 293 299 302 301 301 300 300 301 302 303 303 302 303 305 306 307 308 307 304 296 284 269 258 252 242 235 230 212 201 202 201 201 202 200 198 203
Height
1440 1439 1439 1438 1437 1436 1435 1434 1434 1433 1432 1431 1429 1428 1427 1426 1426 1425 1424 1424 1424 1424 1425 1425 1425 1425 1426 1426 1426 1426 1426 1426 1423 1422 1422 1421 1421 1420 1418 1416 1413 1411 1409
1436 1436 1435 1434 1433 1433 1432 1431 1431 1430 1429 1428 1426 1425 1424 1423 1422 1422 1421 1421 1421 1421 1421 1421 1421 1422 1422 1422 1422 1422 1422 1422 1421 1419 1418 1418 1417 1416 1414 1412 1409 1407 1405
1433 1433 1432 1431 1430 1429 1428 1428 1428 1427 1426 1425 1423 1422 1421 1420 1420 1419 1419 1418 1418 1418 1418 1418 1418 1419 1419 1419 1419 1419 1419 1419 1418 1417 1415 1415 1414 1413 1411 1408 1406 1404 1402
1430 1429 1429 1428 1427 1426 1426 1425 1425 1424 1423 1422 1421 1420 1418 1417 1417 1416 1416 1415 1415 1416 1416 1416 1416 1416 1417 1417 1417 1417 1417 1416 1416 1415 1413 1412 1411 1410 1408 1406 1403 1401 1399
1427 1426 1426 1425 1425 1424 1423 1423 1422 1422 1421 1420 1419 1417 1416 1415 1414 1414 1413 1413 1413 1413 1414 1414 1414 1414 1415 1415 1415 1414 1415 1414 1414 1413 1411 1410 1408 1407 1405 1403 1401 1399 1397
1424 1424 1424 1423 1422 1421 1421 1420 1420 1419 1418 1418 1416 1415 1414 1413 1413 1412 1412 1411 1412 1412 1412 1412 1412 1413 1413 1413 1413 1413 1413 1413 1412 1411 1409 1408 1406 1405 1403 1401 1400 1397 1394
1422 1422 1421 1420 1420 1419 1419 1418 1417 1417 1416 1415 1415 1414 1413 1412 1412 1411 1411 1411 1411 1411 1411 1410 1410 1411 1411 1411 1411 1411 1411 1410 1410 1409 1407 1406 1404 1403 1401 1399 1398 1396 1394
1419 1419 1419 1418 1418 1417 1417 1416 1416 1415 1414 1414 1413 1413 1412 1411 1411 1411 1411 1410 1410 1410 1409 1409 1409 1409 1409 1409 1409 1409 1408 1408 1407 1407 1406 1404 1403 1401 1400 1398 1396 1393 1392
1417 1416 1416 1416 1416 1415 1414 1414 1414 1413 1413 1412 1412 1411 1411 1410 1410 1410 1410 1410 1409 1409 1408 1408 1408 1408 1408 1408 1408 1407 1406 1405 1405 1404 1403 1402 1401 1399 1398 1396 1394 1392 1390
1414 1414 1414 1414 1414 1413 1413 1413 1412 1412 1411 1411 1411 1411 1410 1410 1410 1410 1410 1409 1408 1407 1407 1407 1407 1406 1406 1407 1406 1405 1404 1404 1403 1402 1401 1400 1398 1397 1396 1394 1393 1391 1389
1412 1412 1412 1412 1412 1412 1411 1411 1411 1410 1410 1410 1410 1410 1410 1409 1409 1409 1409 1408 1407 1406 1406 1405 1405 1406 1405 1405 1405 1404 1403 1403 1402 1401 1399 1398 1397 1395 1394 1392 1391 1390 1388
1411 1411 1411 1411 1410 1410 1410 1410 1410 1410 1409 1408 1408 1409 1409 1409 1409 1408 1408 1408 1407 1406 1405 1405 1405 1405 1404 1404 1404 1403 1402 1402 1401 1399 1398 1396 1395 1394 1392 1391 1389 1388 1387
1410 1409 1409 1409 1409 1409 1409 1408 1408 1408 1408 1408 1407 1407 1408 1408 1408 1408 1407 1407 1406 1405 1405 1404 1404 1404 1403 1402 1402 1402 1401 1400 1399 1398 1396 1395 1394 1392 1391 1389 1388 1386 1385
1409 1409 1409 1408 1408 1408 1408 1408 1408 1408 1407 1407 1407 1407 1407 1407 1407 1407 1406 1406 1405 1405 1404 1403 1403 1403 1402 1401 1401 1400 1399 1398 1398 1396 1395 1394 1392 1391 1389 1388 1386 1385 1384
1409 1409 1409 1409 1408 1408 1408 1407 1407 1407 1407 1407 1407 1407 1406 1406 1407 1407 1406 1405 1405 1404 1404 1403 1402 1401 1401 1400 1399 1399 1398 1397 1396 1395 1394 1392 1391 1390 1388 1387 1386 1384 1383
1409 1409 1409 1409 1409 1408 1407 1407 1408 1408 1408 1408 1407 1407 1407 1407 1406 1406 1405 1405 1405 1404 1403 1401 1401 1400 1400 1399 1398 1397 1397 1396 1395 1394 1393 1392 1390 1389 1387 1386 1385 1384 1383
1409 1409 1409 1409 1409 1408 1408 1407 1407 1408 1408 1408 1408 1407 1407 1406 1406 1405 1405 1404 1404 1403 1402 1401 1400 1399 1399 1398 1397 1396 1396 1395 1394 1393 1392 1391 1390 1388 1387 1386 1385 1384 1383
1409 1409 1409 1409 1409 1409 1408 1408 1407 1407 1407 1407 1407 1407 1406 1406 1405 1405 1404 1403 1402 1402 1401 1400 1399 1398 1398 1397 1396 1395 1395 1394 1393 1392 1391 1390 1389 1388 1386 1385 1385 1384 1383
1410 1409 1410 1409 1409 1409 1409 1408 1408 1407 1407 1407 1406 1406 1406 1405 1404 1404 1403 1402 1401 1400 1400 1399 1398 1397 1396 1395 1395 1394 1393 1392 1392 1391 1390 1389 1388 1387 1386 1385 1384 1384 1383
1410 1410 1410 1409 1409 1409 1409 1408 1408 1407 1407 1406 1405 1405 1404 1403 1402 1402 1401 1400 1399 1398 1398 1397 1396 1396 1395 1394 1393 1392 1392 1391 1390 1389 1388 1388 1387 1386 1385 1385 1384 1383 1383
1410 1410 1410 1409 1409 1409 1408 1408 1407 1407 1406 1406 1405 1404 1404 1402 1401 1400 1399 1398 1397 1397 1396 1395 1394 1393 1393 1392 1391 1391 1390 1389 1388 1388 1387 1386 1386 1385 1385 1384 1384 1383 1383
1409 1409 1409 1409 1408 1408 1408 1407 1407 1406 1406 1405 1404 1403 1402 1401 1400 1399 1397 1396 1395 1395 1394 1393 1392 1391 1390 1390 1389 1389 1388 1387 1387 1386 1386 1385 1385 1384 1384 1383 1383 1383 1383
1409 1409 1408 1408 1408 1407 1407 1406 1406 1405 1404 1404 1402 1401 1400 1399 1398 1397 1395 1394 1393 1392 1391 1390 1389 1388 1388 1387 1387 1386 1386 1385 1385 1385 1384 1384 1383 1383 1383 1383 1383 1383 1382
1408 1408 1407 1407 1407 1406 1406 1405 1404 1404 1403 1402 1401 1399 1398 1397 1396 1394 1393 1391 1390 1389 1388 1387 1386 1385 1385 1384 1384 1383 1383 1383 1383 1383 1383 1382 1382 1382 1382 1382 1382 1382 1382
1407 1406 1406 1406 1405 1405 1404 1403 1402 1401 1400 1399 1398 1397 1396 1394 1393 1391 1390 1388 1387 1386 1385 1384 1383 1383 1382 1381 1381 1380 1380 1380 1380 1381 1381 1381 1381 1381 1381 1381 1381 1381 1381
1405 1405 1404 1404 1403 1403 1402 1401 1400 1399 1398 1397 1396 1394 1393 1391 1390 1388 1387 1386 1384 1383 1382 1381 1380 1380 1379 1378 1378 1378 1378 1378 1378 1379 1379 1379 1379 1380 1380 1380 1381 1381 1381